Wed, 22 Sep 2021 15:46:39 UTC

Information for RPM brotli-1.0.7-11.fc33.i686.rpm

ID21577243
Namebrotli
Version1.0.7
Release11.fc33
Epoch
Archi686
SummaryLossless compression algorithm
DescriptionBrotli is a generic-purpose lossless compression algorithm that compresses data using a combination of a modern variant of the LZ77 algorithm, Huffman coding and 2nd order context modeling, with a compression ratio comparable to the best currently available general-purpose compression methods. It is similar in speed with deflate but offers more dense compression.
Build Time2020-05-23 16:39:41 GMT
Size332,573
af2302e0c6907e3c7b6d8e9f43918f45
LicenseMIT
Buildrootf33-python-20856205-1539639
Provides
brotli = 1.0.7-11.fc33
brotli(x86-32) = 1.0.7-11.fc33
Obsoletes No Obsoletes
Conflicts No Conflicts
Requires
libbrotli(x86-32) = 1.0.7-11.fc33
libc.so.6
libc.so.6(GLIBC_2.0)
libc.so.6(GLIBC_2.1)
libc.so.6(GLIBC_2.1.3)
libc.so.6(GLIBC_2.3.4)
libc.so.6(GLIBC_2.4)
libm.so.6
libm.so.6(GLIBC_2.29)
rpmlib(CompressedFileNames) <= 3.0.4-1
rpmlib(FileDigests) <= 4.6.0-1
rpmlib(PayloadFilesHavePrefix) <= 4.0-1
rpmlib(PayloadIsZstd) <= 5.4.18-1
rtld(GNU_HASH)
Recommends No Recommends
Suggests No Suggests
Supplements No Supplements
Enhances No Enhances
Files
1 through 4 of 4
Name ascending sort Size
/usr/bin/brotli768,504
/usr/lib/.build-id0
/usr/lib/.build-id/3f0
/usr/lib/.build-id/3f/14fb3a42f634f439d053a3d8a61f07cdbed67426
Component of
Page:
1 through 50 of 4560 >>>
Buildroot descending sort Created State
f33-build-22187133-1884738 2020-08-14 03:06:46 expired
f33-build-22187106-1884738 2020-08-14 03:05:29 expired
f33-build-22187078-1884738 2020-08-14 03:03:52 expired
f33-build-22186280-1884684 2020-08-14 01:32:25 expired
f33-build-22184784-1884442 2020-08-13 22:56:06 expired
f33-build-22184416-1884267 2020-08-13 22:10:50 expired
f33-build-22183604-1883803 2020-08-13 20:24:01 expired
f33-build-22183518-1883803 2020-08-13 20:10:10 expired
f33-build-22183441-1883803 2020-08-13 19:59:31 expired
f33-build-22183124-1883803 2020-08-13 18:18:04 expired
f33-build-22182913-1883803 2020-08-13 17:17:52 expired
f33-build-22182822-1883803 2020-08-13 16:58:33 expired
f33-build-22182483-1883590 2020-08-13 15:50:39 expired
f33-build-22182330-1883560 2020-08-13 15:25:40 expired
f33-build-22182036-1883278 2020-08-13 14:48:05 expired
f33-build-22181126-1882884 2020-08-13 13:01:04 expired
f33-build-22181114-1882884 2020-08-13 12:58:44 expired
f33-build-22180016-1882497 2020-08-13 11:06:54 expired
f33-build-22179120-1882497 2020-08-13 09:37:36 expired
f33-build-22179097-1882497 2020-08-13 09:35:00 expired
f33-build-22179087-1882497 2020-08-13 09:32:44 expired
f33-build-22178961-1882497 2020-08-13 09:16:01 expired
f33-build-22178068-1882497 2020-08-13 07:52:44 expired
f33-build-22178066-1882497 2020-08-13 07:52:44 expired
f33-build-22175340-1882497 2020-08-13 05:31:38 expired
f33-build-22174514-1882497 2020-08-13 04:51:43 expired
f33-build-22174446-1882497 2020-08-13 04:48:47 expired
f33-build-22164691-1882497 2020-08-12 22:15:47 expired
f33-build-22162202-1882497 2020-08-12 21:33:02 expired
f33-build-22162048-1882497 2020-08-12 21:28:48 expired
f33-build-22160290-1882497 2020-08-12 20:10:40 expired
f33-build-22155871-1882305 2020-08-12 18:00:49 expired
f33-build-22155251-1882305 2020-08-12 17:28:51 expired
f33-build-22155079-1882305 2020-08-12 17:10:31 expired
f33-build-22154323-1882164 2020-08-12 16:35:57 expired
f33-build-22153183-1882135 2020-08-12 15:50:51 expired
f33-build-22153177-1882135 2020-08-12 15:50:43 expired
f33-build-22153146-1882086 2020-08-12 15:44:56 expired
f33-build-22152700-1881984 2020-08-12 15:32:26 expired
f33-build-22152615-1881816 2020-08-12 15:17:49 expired
f33-build-22152458-1881816 2020-08-12 15:10:38 expired
f33-build-22151230-1881697 2020-08-12 14:38:03 expired
f33-build-22148612-1881338 2020-08-12 13:24:28 expired
f33-build-22148475-1881338 2020-08-12 13:15:16 expired
f33-build-22148071-1881338 2020-08-12 12:58:23 expired
f33-build-22145998-1881338 2020-08-12 12:21:08 expired
f33-build-22143182-1881338 2020-08-12 10:40:21 expired
f33-build-22143147-1881201 2020-08-12 10:27:26 expired
f33-build-22143141-1881201 2020-08-12 10:27:02 expired
f33-build-22143004-1881201 2020-08-12 10:07:45 expired